Regional Weather Roundup
Issued by NWS

Home | Current Version | Previous Version | Text Only | Print | Product List | Glossary On
Versions: 1 2 3 4 5 6 7 8 9 10 11 12 13 14 15 16 17 18 19 20 21 22 23 24 25 26 27 28 29 30 31 32 33 34 35 36 37 38 39 40 41 42 43 44 45 46 47 48 49 50
000
ASUS42 KFFC 261903
RWRGA
WEATHER ROUNDUP FOR GEORGIA
NATIONAL WEATHER SERVICE PEACHTREE CITY GA
300 PM EDT THU MAR 26 2015

NOTE: "FAIR" INDICATES FEW OR NO CLOUDS BELOW 12,000 FEET WITH NO
SIGNIFICANT WEATHER AND/OR OBSTRUCTIONS TO VISIBILITY.

* = USE WITH CAUTION. THE STATIONS MARKED WITH AN ASTERISK MAY NOT
REPORT WEATHER SUCH AS PRECIPITATION, FOG, OR THUNDER AND ARE NOT
QUALITY CONTROLLED BY NWS.

THE REMARK "TC" DENOTES TEMPERATURE READING IN DEGREES CELSIUS.

GAZ001>058-262000-
NORTH GEORGIA

CITY           SKY/WX    TMP DP  RH WIND       PRES   REMARKS
ATLANTA        CLOUDY    73  51  46 SW8       29.88F
ATHENS         CLOUDY    74  50  42 SW10G20   29.87F
CHAMBLEE       CLOUDY    71  53  52 W10       29.87F
PEACHTREE CITY CLOUDY    73  52  47 SW7       29.89F
ROME           CLOUDY    73  54  51 SW6       29.82F
WEST ATLANTA   CLOUDY    73  50  44 S12       29.86F
GAINESVILLE    CLOUDY    71  53  52 SW12      29.88F
CARTERSVILLE   CLOUDY    73  53  49 VRB3      29.85F


CITY           SKY/WX    TMP DP  RH WIND       PRES   REMARKS
DALTON*        PTSUNNY   72  54  53 CALM      29.83F
LAWRENCEVILLE* PTSUNNY   72  54  53 W12       29.86F
KENNESAW*      PTSUNNY   73  50  43 W12       29.86F
$$

GAZ059>098-102>109-262000-
CENTRAL GEORGIA

CITY           SKY/WX    TMP DP  RH WIND       PRES   REMARKS
AUGUSTA-BUSH   CLOUDY    76  56  49 SW10      29.88F
AUGUSTA-DANIEL CLOUDY    76  55  48 SW9G16    29.89F
COLUMBUS       CLOUDY    74  52  46 W6        29.88F
MACON          CLOUDY    72  59  63 SW8       29.90F


CITY           SKY/WX    TMP DP  RH WIND       PRES   REMARKS
LAGRANGE*      CLOUDY    76  58  52 W6        29.89F
SYLVANIA*      PTSUNNY   78  59  52 SW8       29.91F
MILLEDGEVILLE* CLOUDY    75  63  64 S5        29.88F
$$

GAZ099>101-110>166-262000-
SOUTH GEORGIA

CITY           SKY/WX    TMP DP  RH WIND       PRES   REMARKS
SAVANNAH       CLOUDY    77  57  50 S9        29.91F
VALDOSTA       CLOUDY    74  61  63 S5        29.93F
ALMA           CLOUDY    75  59  57 S9        29.93F
ST SIMONS      CLOUDY    72  62  71 SW9       29.94F
FT STEWART     CLOUDY    76  57  52 SW8       29.90
ALBANY         RAIN      71  60  68 W12       29.96S
BRUNSWICK      CLOUDY    72  63  73 S8        29.95F


CITY           SKY/WX    TMP DP  RH WIND       PRES   REMARKS
BAINBRIDGE*    CLOUDY    73  64  73 S3        29.93F
MOULTRIE*      CLOUDY    70  61  73 S3        29.95F
VIDALIA*       CLOUDY    75  59  57 SW10      29.92F
WAYCROSS*      CLOUDY    79  64  60 SW10      29.93F
DOUGLAS*       CLOUDY    75  57  53 SW5       29.95F
$$



USA.gov is the U.S. government's official web portal to all federal, state and local government web resources and services.